OE7AOT Weather Reports


Display with metric or nautical units.
time (UTC)temp
F
wind
direction
speed
MPH
gust
MPH
rain 1hr
in
rain 24hr
in
rain mn
in
humidity
%
barometer
mb
20260502123026 79 272 9.0 0.0 0.00 1.11 0.00 18 917.8
20260502113026 74 276 8.0 0.0 0.00 1.11 0.00 22 918.5
20260502110026 73 283 6.0 0.0 0.00 1.11 0.00 25 918.8
20260502103026 71 232 6.0 0.0 0.00 1.11 0.00 29 919.1
20260502070026 50 121 15.0 0.0 0.00 1.11 0.00 61 920.8
20260502063026 46 158 12.0 0.0 0.00 1.11 0.00 67 920.9
20260502060026 43 138 10.0 0.0 0.00 1.11 0.00 73 920.9
20260502053026 42 100 8.0 0.0 0.00 1.11 0.00 73 921.1
20260502050026 41 100 9.0 0.0 0.00 1.11 0.00 73 921.1
20260502043026 42 131 10.0 0.0 0.00 1.11 0.00 73 921.0
20260502040026 42 120 12.0 0.0 0.00 1.11 0.00 72 920.9
20260502033026 42 125 11.0 0.0 0.00 1.11 0.00 71 920.9
20260502030026 43 136 10.0 0.0 0.00 1.11 0.00 69 921.0
20260502023026 44 120 8.0 0.0 0.00 1.11 0.00 68 921.1
20260502020026 44 112 10.0 0.0 0.00 1.11 0.00 67 921.2
20260502013026 45 117 8.0 0.0 0.00 1.11 0.00 65 921.3
20260502010026 45 115 9.0 0.0 0.00 1.11 0.00 64 921.5
20260502003026 45 142 8.0 0.0 0.00 1.11 0.00 63 921.5
20260502000026 46 162 5.0 0.0 0.00 1.11 0.00 62 921.6
20260501233026 46 125 5.0 0.0 0.00 1.11 0.00 61 921.6
20260501230026 46 122 5.0 0.0 0.00 1.11 0.00 60 921.7
20260501223026 48 120 2.0 0.0 0.00 1.11 0.00 58 921.9
20260501220026 49 324 1.0 0.0 0.00 1.11 0.00 57 922.0
20260501213026 50 0 0.0 0.0 0.00 1.11 0.00 54 922.1
20260501210026 52 132 4.0 0.0 0.00 1.11 0.00 52 921.9
20260501203026 53 330 0.0 0.0 0.00 1.11 0.00 51 921.7
20260501200026 55 0 0.0 0.0 0.00 1.11 0.00 48 921.6
20260501193026 56 0 0.0 0.0 0.00 1.11 0.00 46 921.6
20260501190026 59 0 0.0 0.0 0.00 1.11 0.00 42 921.5
20260501183026 62 0 0.0 0.0 0.00 1.11 0.00 37 921.2
20260501180026 67 0 0.0 0.0 0.00 1.11 0.00 33 921.1
20260501173026 75 148 5.0 0.0 0.00 1.11 0.00 25 921.0
20260501170026 76 158 11.0 0.0 0.00 1.11 0.00 23 920.7
20260501163032 77 151 5.0 0.0 0.00 1.11 0.00 23 92.0
20260501163026 77 151 5.0 0.0 0.00 1.11 0.00 23 920.6
20260501160026 75 273 9.0 0.0 0.00 1.11 0.00 24 920.5
20260501153026 73 268 10.0 0.0 0.00 1.11 0.00 24 920.4
20260501150026 72 293 14.0 0.0 0.00 1.11 0.00 23 920.5